TimeCDT,TemperatureF,Dew PointF,Humidity,Sea Level PressureIn,VisibilityMPH,Wind Direction,Wind SpeedMPH,Gust SpeedMPH,PrecipitationIn,Events,Conditions,WindDirDegrees,DateUTC
12:15 AM,57.2,37.4,48,29.90,10.0,SW,4.6,-,N/A,,Clear,220,2013-05-16 05:15:00
12:35 AM,57.2,39.2,51,29.90,10.0,SSW,5.8,-,N/A,,Clear,210,2013-05-16 05:35:00
12:55 AM,53.6,39.2,58,29.90,10.0,Calm,Calm,-,N/A,,Clear,0,2013-05-16 05:55:00
1:15 AM,57.2,41.0,55,29.91,8.0,Calm,Calm,-,N/A,,Clear,0,2013-05-16 06:15:00
1:35 AM,57.2,39.2,51,29.90,10.0,West,3.5,-,N/A,,Clear,270,2013-05-16 06:35:00
1:55 AM,55.4,39.2,54,29.91,10.0,WNW,3.5,-,N/A,,Clear,300,2013-05-16 06:55:00
2:15 AM,55.4,41.0,58,29.91,10.0,West,4.6,-,N/A,,Clear,280,2013-05-16 07:15:00
2:35 AM,55.4,39.2,54,29.90,10.0,WSW,5.8,-,N/A,,Clear,250,2013-05-16 07:35:00
2:55 AM,57.2,39.2,51,29.90,10.0,West,5.8,-,N/A,,Clear,260,2013-05-16 07:55:00
3:15 AM,57.2,39.2,51,29.90,10.0,West,4.6,-,N/A,,Clear,260,2013-05-16 08:15:00
3:35 AM,53.6,39.2,58,29.89,10.0,WSW,4.6,-,N/A,,Clear,250,2013-05-16 08:35:00
3:55 AM,53.6,39.2,58,29.89,10.0,Calm,Calm,-,N/A,,Clear,0,2013-05-16 08:55:00
4:15 AM,53.6,39.2,58,29.89,10.0,Calm,Calm,-,N/A,,Clear,0,2013-05-16 09:15:00
4:35 AM,51.8,39.2,62,29.90,10.0,Calm,Calm,-,N/A,,Clear,0,2013-05-16 09:35:00
4:55 AM,51.8,39.2,62,29.90,10.0,WSW,4.6,-,N/A,,Clear,240,2013-05-16 09:55:00
5:15 AM,50.0,39.2,66,29.90,10.0,SW,4.6,-,N/A,,Clear,230,2013-05-16 10:15:00
5:35 AM,48.2,39.2,71,29.91,10.0,SSW,3.5,-,N/A,,Clear,210,2013-05-16 10:35:00
5:55 AM,50.0,39.2,66,29.91,10.0,SSW,3.5,-,N/A,,Clear,210,2013-05-16 10:55:00
6:15 AM,48.2,37.4,66,29.91,10.0,Calm,Calm,-,N/A,,Clear,0,2013-05-16 11:15:00
6:35 AM,48.2,39.2,71,29.92,10.0,Calm,Calm,-,N/A,,Clear,0,2013-05-16 11:35:00
6:55 AM,51.8,41.0,67,29.92,10.0,Calm,Calm,-,N/A,,Clear,0,2013-05-16 11:55:00
7:15 AM,55.4,44.6,67,29.92,10.0,Calm,Calm,-,N/A,,Clear,0,2013-05-16 12:15:00
7:35 AM,62.6,46.4,55,29.92,10.0,WSW,3.5,-,N/A,,Clear,250,2013-05-16 12:35:00
7:55 AM,66.2,44.6,46,29.92,10.0,West,5.8,-,N/A,,Clear,270,2013-05-16 12:55:00
8:15 AM,68.0,44.6,43,29.93,10.0,SW,4.6,-,N/A,,Clear,230,2013-05-16 13:15:00
8:35 AM,69.8,44.6,40,29.93,10.0,SW,6.9,-,N/A,,Clear,220,2013-05-16 13:35:00
8:55 AM,71.6,46.4,41,29.93,10.0,SSW,8.1,-,N/A,,Clear,200,2013-05-16 13:55:00
9:15 AM,73.4,44.6,36,29.92,10.0,South,4.6,-,N/A,,Clear,190,2013-05-16 14:15:00
9:35 AM,75.2,42.8,31,29.92,10.0,South,8.1,-,N/A,,Clear,180,2013-05-16 14:35:00
9:55 AM,75.2,44.6,34,29.92,10.0,SSE,5.8,-,N/A,,Clear,150,2013-05-16 14:55:00
10:15 AM,77.0,42.8,29,29.91,10.0,SSW,6.9,-,N/A,,Clear,200,2013-05-16 15:15:00
10:35 AM,77.0,42.8,29,29.90,10.0,SE,10.4,-,N/A,,Clear,130,2013-05-16 15:35:00
10:55 AM,77.0,41.0,28,29.90,10.0,SE,9.2,-,N/A,,Clear,130,2013-05-16 15:55:00
11:15 AM,78.8,42.8,28,29.90,10.0,SSE,9.2,-,N/A,,Clear,150,2013-05-16 16:15:00
11:35 AM,78.8,39.2,24,29.89,10.0,SSE,6.9,-,N/A,,Clear,160,2013-05-16 16:35:00
11:55 AM,80.6,39.2,23,29.89,10.0,SSE,9.2,-,N/A,,Clear,160,2013-05-16 16:55:00
12:15 PM,80.6,39.2,23,29.88,10.0,SSE,12.7,16.1,N/A,,Clear,150,2013-05-16 17:15:00
12:35 PM,82.4,39.2,21,29.88,10.0,South,4.6,-,N/A,,Clear,170,2013-05-16 17:35:00
12:55 PM,82.4,37.4,20,29.88,10.0,SE,6.9,-,N/A,,Clear,130,2013-05-16 17:55:00
1:15 PM,82.4,37.4,20,29.86,10.0,South,10.4,-,N/A,,Clear,170,2013-05-16 18:15:00
1:35 PM,82.4,37.4,20,29.86,10.0,SSE,10.4,18.4,N/A,,Clear,150,2013-05-16 18:35:00
2:15 PM,84.2,35.6,18,29.84,10.0,East,12.7,17.3,N/A,,Clear,100,2013-05-16 19:15:00
2:35 PM,84.2,35.6,18,29.84,10.0,SSE,5.8,-,N/A,,Clear,150,2013-05-16 19:35:00
2:55 PM,84.2,35.6,18,29.83,10.0,SW,4.6,-,N/A,,Clear,230,2013-05-16 19:55:00
3:15 PM,86.0,35.6,17,29.84,10.0,SSE,9.2,17.3,N/A,,Clear,150,2013-05-16 20:15:00
4:35 PM,84.2,33.8,16,29.82,10.0,SE,8.1,-,N/A,,Clear,130,2013-05-16 21:35:00
5:15 PM,84.2,35.6,18,29.81,10.0,SE,9.2,-,N/A,,Clear,140,2013-05-16 22:15:00
5:35 PM,82.4,37.4,20,29.81,10.0,SE,8.1,-,N/A,,Clear,140,2013-05-16 22:35:00
5:55 PM,84.2,33.8,16,29.79,10.0,East,9.2,-,N/A,,Clear,100,2013-05-16 22:55:00
6:15 PM,82.4,33.8,17,29.81,10.0,ESE,9.2,-,N/A,,Clear,120,2013-05-16 23:15:00
6:35 PM,82.4,33.8,17,29.83,10.0,ESE,8.1,-,N/A,,Partly Cloudy,120,2013-05-16 23:35:00
6:55 PM,80.6,33.8,18,29.82,10.0,ESE,8.1,-,N/A,,Scattered Clouds,120,2013-05-16 23:55:00
7:15 PM,78.8,35.6,21,29.82,10.0,ESE,6.9,-,N/A,,Clear,110,2013-05-17 00:15:00
7:35 PM,78.8,35.6,21,29.82,10.0,ESE,8.1,-,N/A,,Mostly Cloudy,120,2013-05-17 00:35:00
7:55 PM,75.2,39.2,27,29.83,10.0,SE,8.1,-,N/A,,Overcast,130,2013-05-17 00:55:00
8:15 PM,75.2,46.4,36,29.83,10.0,SSE,6.9,-,N/A,,Overcast,160,2013-05-17 01:15:00
8:35 PM,69.8,55.4,60,29.85,10.0,WSW,10.4,24.2,N/A,,Overcast,240,2013-05-17 01:35:00
8:55 PM,66.2,57.2,73,29.85,10.0,West,9.2,-,0.02,,Scattered Clouds,260,2013-05-17 01:55:00
9:15 PM,66.2,57.2,73,29.86,10.0,West,3.5,-,0.01,,Mostly Cloudy,260,2013-05-17 02:15:00
9:35 PM,66.2,57.2,73,29.86,10.0,WNW,5.8,-,0.01,,Overcast,300,2013-05-17 02:35:00
9:55 PM,66.2,59.0,78,29.87,10.0,South,13.8,-,0.01,,Overcast,170,2013-05-17 02:55:00
10:15 PM,64.4,59.0,83,29.88,10.0,SSW,11.5,-,N/A,,Overcast,200,2013-05-17 03:15:00
10:35 PM,64.4,59.0,83,29.88,10.0,SW,8.1,-,0.01,,Overcast,220,2013-05-17 03:35:00
10:55 PM,64.4,60.8,88,29.87,10.0,South,5.8,-,0.05,,Scattered Clouds,170,2013-05-17 03:55:00
11:15 PM,64.4,60.8,88,29.86,7.0,SE,4.6,-,0.03,,Partly Cloudy,140,2013-05-17 04:15:00
11:35 PM,64.4,60.8,88,29.86,10.0,SE,3.5,-,0.04,,Mostly Cloudy,130,2013-05-17 04:35:00
11:55 PM,64.4,60.8,88,29.86,8.0,Calm,Calm,-,0.05,,Overcast,0,2013-05-17 04:55:00